Weather History for Harrison, AR

Change the Weather History Date:

Saturday, December 8, 2012

  Actual Average Record
Temperature  
Mean Temperature 51 °F 40 °F  
Max Temperature 55 °F 49 °F 77 °F (1904)
Min Temperature 46 °F 30 °F -5 °F (1917)
Degree Days  
Heating Degree Days 14 25  
Month to date heating degree days 78 193  
Since 1 July heating degree days 830 957  
Cooling Degree Days 0 0  
Month to date cooling degree days 8 0  
Year to date cooling degree days 1969 1416  
Moisture  
Dew Point 49 °F    
Average Humidity 92    
Maximum Humidity 100    
Minimum Humidity 83    
Precipitation  
Precipitation T in 0.12 in 1.95 in (1994)
Month to date precipitation 0.58 0.96  
Year to date precipitation 28.03 41.90  
Snow  
Snow 0.00 in 0.00 in 2.50 in (1989)
Month to date snowfall 0.0 0.0  
Since 1 July snowfall 0.0 0.5  
Snow Depth 0.00 in    
Sea Level Pressure  
Sea Level Pressure 29.88 in    
Wind  
Wind Speed 6 mph (East)    
Max Wind Speed 14 mph    
Max Gust Speed 16 mph    
Visibility 4 miles    
Events Fog , Rain    
T = Trace of Precipitation, MM = Missing Value Source: NWS Daily Summary

Daily Weather History Graph

Daily Weather History Graph

Search for Another Location

Airport:

Trip Planner

Search our weather history database for the weather conditions in past years. The results will help you decide how hot, cold, wet, or windy it might be!

Date:

Astronomy

Dec. 08, 2012 Rise Set
Actual Time 7:11 AM CST 4:57 PM CST
Civil Twilight 6:43 AM CST 5:26 PM CST
Nautical Twilight 6:11 AM CST 5:58 PM CST
Astronomical Twilight 5:40 AM CST 6:29 PM CST
Moon 1:44 AM CST (12/8) 1:21 PM CST (12/8)
Length of Visible Light 10h 42m
Length of Day
9h 45m
Waning Crescent, 28% of the Moon is Illuminated
Dec 8
Waning Crescent
Dec 13
New
Dec 19
First Quarter
Dec 28
Full
Jan 4
Last Quarter

Hourly Weather History & Observations

Time (CST) Temp. Windchill Dew Point Humidity Pressure Visibility Wind Dir Wind Speed Gust Speed Precip Events Conditions
12:53 AM 52.0 °F - 50.0 °F 93% 29.86 in 8.0 mi South 3.5 mph - N/A   Overcast
1:53 AM 53.1 °F - 50.0 °F 89% 29.86 in 9.0 mi West 3.5 mph - N/A   Mostly Cloudy
2:28 AM 48.2 °F - 48.2 °F 100% 29.87 in 1.0 mi Calm Calm - N/A   Scattered Clouds
2:31 AM 46.4 °F - 46.4 °F 100% 29.87 in 0.5 mi Calm Calm - N/A Fog Fog
2:37 AM 48.2 °F - 46.4 °F 93% 29.87 in 0.8 mi Calm Calm - N/A   Mist
2:41 AM 48.2 °F - 46.4 °F 93% 29.87 in 3.0 mi Calm Calm - N/A   Partly Cloudy
2:53 AM 48.9 °F - 48.0 °F 97% 29.86 in 6.0 mi Calm Calm - N/A   Partly Cloudy
3:00 AM 48.2 °F - 48.2 °F 100% 29.87 in 1.8 mi Calm Calm - N/A   Clear
3:03 AM 46.4 °F - 46.4 °F 100% 29.87 in 0.8 mi Calm Calm - N/A   Mist
3:06 AM 46.4 °F - 46.4 °F 100% 29.88 in 0.2 mi Calm Calm - N/A Fog Fog
3:18 AM 46.4 °F - 44.6 °F 93% 29.88 in 0.8 mi Calm Calm - N/A   Mist
3:29 AM 50.0 °F - 48.2 °F 94% 29.88 in 1.2 mi Calm Calm - N/A   Partly Cloudy
3:34 AM 50.0 °F - 48.2 °F 94% 29.88 in 3.0 mi Calm Calm - N/A   Partly Cloudy
3:50 AM 48.2 °F - 46.4 °F 93% 29.88 in 1.5 mi North 3.5 mph - N/A   Clear
3:53 AM 46.9 °F - 46.9 °F 100% 29.88 in 0.8 mi North 3.5 mph - N/A   Mist
4:00 AM 46.4 °F 45.2 °F 46.4 °F 100% 29.88 in 0.5 mi North 3.5 mph - N/A Fog Fog
4:09 AM 46.4 °F 45.2 °F 46.4 °F 100% 29.88 in 0.5 mi NNW 3.5 mph - N/A Fog Fog
4:16 AM 48.2 °F - 46.4 °F 93% 29.88 in 1.0 mi NNW 3.5 mph - N/A   Clear
4:27 AM 48.2 °F - 48.2 °F 100% 29.88 in 3.0 mi NW 4.6 mph - N/A   Clear
4:38 AM 46.4 °F 44.3 °F 46.4 °F 100% 29.88 in 1.8 mi NNW 4.6 mph - N/A   Clear
4:50 AM 48.2 °F - 48.2 °F 100% 29.89 in 3.0 mi NW 3.5 mph - N/A   Scattered Clouds
4:53 AM 48.9 °F - 48.0 °F 97% 29.88 in 4.0 mi North 4.6 mph - N/A   Mostly Cloudy
5:00 AM 48.2 °F - 48.2 °F 100% 29.88 in 4.0 mi North 5.8 mph - N/A   Mostly Cloudy
5:50 AM 48.2 °F - 46.4 °F 93% 29.90 in 1.8 mi Calm Calm - N/A   Overcast
5:51 AM 48.0 °F - 46.9 °F 96% 29.89 in 1.5 mi Calm Calm - N/A   Overcast
6:06 AM 48.2 °F - 48.2 °F 100% 29.90 in 3.0 mi NW 3.5 mph - N/A   Overcast
6:46 AM 50.0 °F - 48.2 °F 94% 29.91 in 3.0 mi Calm Calm - N/A   Overcast
6:53 AM 50.0 °F - 50.0 °F 100% 29.91 in 2.5 mi Calm Calm - N/A   Overcast
7:18 AM 50.0 °F - 50.0 °F 100% 29.92 in 1.2 mi Calm Calm - N/A   Overcast
7:24 AM 50.0 °F - 50.0 °F 100% 29.92 in 0.8 mi Calm Calm - N/A   Mist
7:36 AM 50.0 °F - 50.0 °F 100% 29.92 in 0.2 mi Calm Calm - N/A Fog Fog
7:53 AM 50.0 °F - 50.0 °F 100% 29.92 in 0.2 mi Calm Calm - N/A Fog Fog
8:53 AM 50.0 °F - 50.0 °F 100% 29.93 in 0.2 mi North 5.8 mph - N/A Fog Fog
9:39 AM 50.0 °F - 50.0 °F 100% 29.94 in 0.8 mi NNE 8.1 mph - 0.00 in Rain Light Rain
9:50 AM 50.0 °F - 50.0 °F 100% 29.94 in 1.2 mi NNE 4.6 mph - 0.00 in   Overcast
9:53 AM 50.0 °F - 50.0 °F 100% 29.94 in 1.2 mi NE 5.8 mph - 0.00 in   Overcast
10:08 AM 50.0 °F - 48.2 °F 94% 29.94 in 3.0 mi NE 5.8 mph - N/A   Overcast
10:20 AM 50.0 °F - 48.2 °F 94% 29.94 in 5.0 mi ENE 6.9 mph - N/A   Overcast
10:53 AM 50.0 °F - 48.9 °F 96% 29.93 in 5.0 mi East 4.6 mph - N/A   Overcast
11:35 AM 51.8 °F - 50.0 °F 94% 29.92 in 3.0 mi East 6.9 mph - N/A   Overcast
11:53 AM 51.1 °F - 50.0 °F 96% 29.91 in 3.0 mi East 5.8 mph - N/A   Overcast
12:53 PM 52.0 °F - 51.1 °F 97% 29.89 in 4.0 mi SE 6.9 mph - N/A   Overcast
1:12 PM 53.6 °F - 51.8 °F 94% 29.89 in 4.0 mi SE 6.9 mph - N/A   Overcast
1:53 PM 54.0 °F - 50.0 °F 86% 29.87 in 6.0 mi ESE 5.8 mph - N/A   Overcast
2:24 PM 53.6 °F - 50.0 °F 88% 29.87 in 6.0 mi SE 5.8 mph - N/A   Overcast
2:53 PM 54.0 °F - 50.0 °F 86% 29.85 in 6.0 mi SE 5.8 mph - N/A   Overcast
3:00 PM 53.6 °F - 50.0 °F 88% 29.86 in 6.0 mi ESE 5.8 mph - N/A   Overcast
3:23 PM 53.6 °F - 50.0 °F 88% 29.86 in 6.0 mi ESE 6.9 mph - N/A   Overcast
3:53 PM 55.0 °F - 50.0 °F 83% 29.85 in 6.0 mi SE 9.2 mph - N/A   Haze
4:53 PM 54.0 °F - 50.0 °F 86% 29.85 in 6.0 mi ESE 8.1 mph - N/A   Overcast
5:53 PM 54.0 °F - 51.1 °F 90% 29.85 in 7.0 mi SE 6.9 mph - N/A   Overcast
6:49 PM 53.6 °F - 51.8 °F 94% 29.85 in 8.0 mi SE 11.5 mph - N/A   Overcast
7:53 PM 54.0 °F - 51.1 °F 90% 29.84 in 7.0 mi SE 10.4 mph - N/A   Overcast
8:29 PM 53.6 °F - 51.8 °F 94% 29.85 in 7.0 mi SE 9.2 mph - N/A   Overcast
8:53 PM 54.0 °F - 51.1 °F 90% 29.84 in 7.0 mi SE 10.4 mph - N/A   Overcast
9:07 PM 53.6 °F - 51.8 °F 94% 29.85 in 7.0 mi SE 10.4 mph - N/A   Overcast
9:53 PM 53.1 °F - 51.1 °F 93% 29.84 in 7.0 mi SE 9.2 mph - N/A   Mostly Cloudy
10:04 PM 53.6 °F - 51.8 °F 94% 29.85 in 7.0 mi SSE 8.1 mph - N/A   Overcast
10:41 PM 53.6 °F - 51.8 °F 94% 29.85 in 7.0 mi SE 9.2 mph - N/A   Overcast
10:53 PM 54.0 °F - 52.0 °F 93% 29.85 in 7.0 mi SSE 5.8 mph - N/A   Overcast
11:18 PM 53.6 °F - 51.8 °F 94% 29.84 in 7.0 mi SE 6.9 mph - N/A   Overcast
11:46 PM 53.6 °F - 51.8 °F 94% 29.84 in 7.0 mi SE 8.1 mph - N/A   Overcast
11:53 PM 54.0 °F - 52.0 °F 93% 29.83 in 6.0 mi SE 8.1 mph - N/A   Overcast